| time (UTC) | temp F | wind direction | speed MPH | gust MPH | rain 1hr in | rain 24hr in | rain mn in | humidity % | barometer mb |
| 20260510174542 | 68 | 256 | 1.0 | 10.0 | 0.00 | 0.00 | 0.00 | 70 | 1011.7 |
| 20260510173040 | 66 | 321 | 0.0 | 9.0 | 0.00 | 0.00 | 0.00 | 71 | 1011.4 |
| 20260510171556 | 67 | 268 | 0.0 | 9.0 | 0.00 | 0.00 | 0.00 | 72 | 1011.6 |
| 20260510170039 | 66 | 250 | 1.0 | 3.0 | 0.00 | 0.00 | 0.00 | 75 | 1011.8 |
| 20260510164536 | 67 | 321 | 0.0 | 7.0 | 0.00 | 0.00 | 0.00 | 80 | 1011.7 |
| 20260510163036 | 64 | 296 | 0.0 | 5.0 | 0.00 | 0.00 | 0.00 | 76 | 1012.1 |
| 20260510161536 | 65 | 298 | 2.0 | 7.0 | 0.00 | 0.00 | 0.00 | 73 | 1012.0 |
| 20260510160041 | 65 | 294 | 1.0 | 6.0 | 0.00 | 0.00 | 0.00 | 76 | 1012.0 |
| 20260510154547 | 65 | 302 | 0.0 | 4.0 | 0.00 | 0.00 | 0.00 | 79 | 1012.2 |
| 20260510153042 | 63 | 218 | 1.0 | 8.0 | 0.00 | 0.00 | 0.00 | 84 | 1012.4 |
| 20260510151527 | 64 | 213 | 0.0 | 4.0 | 0.00 | 0.00 | 0.00 | 82 | 1012.4 |
| 20260510150026 | 63 | 217 | 0.0 | 7.0 | 0.00 | 0.00 | 0.00 | 86 | 1012.4 |
| 20260510144542 | 62 | 246 | 0.0 | 6.0 | 0.00 | 0.00 | 0.00 | 88 | 1012.2 |
| 20260510143017 | 60 | 195 | 1.0 | 6.0 | 0.00 | 0.00 | 0.00 | 89 | 1012.3 |
| 20260510141513 | 58 | 163 | 0.0 | 3.0 | 0.00 | 0.00 | 0.00 | 93 | 1012.3 |
| 20260510140012 | 57 | 284 | 1.0 | 3.0 | 0.00 | 0.00 | 0.00 | 95 | 1012.3 |
| 20260510134507 | 55 | 232 | 0.0 | 3.0 | 0.00 | 0.00 | 0.00 | 97 | 1012.3 |
| 20260510133005 | 54 | 148 | 0.0 | 6.0 | 0.00 | 0.00 | 0.00 | 98 | 1012.2 |
| 20260510131506 | 53 | 218 | 0.0 | 0.0 | 0.00 | 0.00 | 0.00 | 98 | 1012.3 |
| 20260510130100 | 53 | 246 | 0.0 | 3.0 | 0.00 | 0.00 | 0.00 | 98 | 1012.4 |
| 20260510124559 | 52 | 236 | 0.0 | 1.0 | 0.00 | 0.00 | 0.00 | 98 | 1012.1 |
| 20260510123057 | 52 | 263 | 0.0 | 0.0 | 0.00 | 0.00 | 0.00 | 99 | 1012.0 |
| 20260510121557 | 52 | 263 | 0.0 | 0.0 | 0.00 | 0.00 | 0.00 | 99 | 1012.0 |
| 20260510120053 | 50 | 263 | 0.0 | 0.0 | 0.00 | 0.00 | 0.00 | 99 | 1012.0 |
| 20260510114552 | 50 | 263 | 0.0 | 0.0 | 0.00 | 0.00 | 0.00 | 99 | 1011.9 |
| 20260510113048 | 49 | 263 | 0.0 | 0.0 | 0.00 | 0.00 | 0.00 | 99 | 1011.8 |
| 20260510111548 | 49 | 259 | 0.0 | 0.0 | 0.00 | 0.00 | 0.00 | 99 | 1011.6 |
| 20260510110051 | 49 | 282 | 0.0 | 3.0 | 0.00 | 0.00 | 0.00 | 99 | 1011.7 |
| 20260510104553 | 49 | 291 | 0.0 | 0.0 | 0.00 | 0.00 | 0.00 | 99 | 1011.5 |
| 20260510103039 | 49 | 227 | 0.0 | 0.0 | 0.00 | 0.00 | 0.00 | 99 | 1011.4 |
| 20260510101545 | 49 | 228 | 0.0 | 3.0 | 0.00 | 0.00 | 0.00 | 99 | 1011.2 |
| 20260510100036 | 49 | 215 | 0.0 | 0.0 | 0.00 | 0.00 | 0.00 | 99 | 1011.2 |
| 20260510094534 | 49 | 215 | 0.0 | 4.0 | 0.00 | 0.00 | 0.00 | 99 | 1010.8 |
| 20260510093033 | 49 | 227 | 0.0 | 0.0 | 0.00 | 0.00 | 0.00 | 99 | 1011.2 |
| 20260510091536 | 49 | 257 | 0.0 | 1.0 | 0.00 | 0.00 | 0.00 | 99 | 1011.1 |
| 20260510090032 | 49 | 249 | 0.0 | 0.0 | 0.00 | 0.00 | 0.00 | 99 | 1011.0 |
| 20260510084544 | 49 | 258 | 0.0 | 0.0 | 0.00 | 0.00 | 0.00 | 99 | 1011.2 |
| 20260510083033 | 49 | 277 | 0.0 | 4.0 | 0.00 | 0.00 | 0.00 | 99 | 1011.4 |
| 20260510081534 | 48 | 288 | 0.0 | 4.0 | 0.00 | 0.00 | 0.00 | 99 | 1011.2 |
| 20260510080034 | 49 | 272 | 0.0 | 5.0 | 0.00 | 0.00 | 0.00 | 99 | 1011.3 |
| 20260510074527 | 49 | 288 | 0.0 | 0.0 | 0.00 | 0.00 | 0.00 | 99 | 1011.4 |
| 20260510073044 | 49 | 250 | 0.0 | 0.0 | 0.00 | 0.00 | 0.00 | 99 | 1011.1 |
| 20260510071526 | 49 | 257 | 0.0 | 0.0 | 0.00 | 0.00 | 0.00 | 99 | 1011.0 |
| 20260510070026 | 49 | 263 | 0.0 | 2.0 | 0.00 | 0.00 | 0.00 | 99 | 1011.0 |
| 20260510064524 | 49 | 267 | 0.0 | 5.0 | 0.00 | 0.00 | 0.00 | 99 | 1011.1 |
| 20260510063023 | 49 | 254 | 0.0 | 1.0 | 0.00 | 0.00 | 0.00 | 99 | 1011.1 |
| 20260510061523 | 49 | 213 | 0.0 | 0.0 | 0.00 | 0.00 | 0.00 | 99 | 1010.9 |
| 20260510060034 | 49 | 212 | 0.0 | 0.0 | 0.00 | 0.00 | 0.00 | 99 | 1010.7 |
| 20260510054520 | 49 | 265 | 0.0 | 0.0 | 0.00 | 0.00 | 0.00 | 99 | 1010.9 |
| 20260510053019 | 49 | 265 | 0.0 | 0.0 | 0.00 | 0.00 | 0.00 | 99 | 1011.0 |
| 20260510051519 | 49 | 232 | 0.0 | 0.0 | 0.00 | 0.00 | 0.00 | 98 | 1010.9 |
| 20260510050018 | 50 | 232 | 0.0 | 0.0 | 0.00 | 0.00 | 0.00 | 98 | 1011.0 |
| 20260510044518 | 50 | 232 | 0.0 | 0.0 | 0.00 | 0.00 | 0.00 | 98 | 1010.8 |
| 20260510043016 | 50 | 232 | 0.0 | 0.0 | 0.00 | 0.00 | 0.00 | 98 | 1010.9 |
| 20260510041515 | 50 | 232 | 0.0 | 0.0 | 0.00 | 0.00 | 0.00 | 98 | 1010.8 |
| 20260510040014 | 50 | 232 | 0.0 | 0.0 | 0.00 | 0.00 | 0.00 | 98 | 1010.8 |
| 20260510034512 | 50 | 232 | 0.0 | 0.0 | 0.00 | 0.00 | 0.00 | 98 | 1010.9 |
| 20260510033012 | 50 | 252 | 0.0 | 0.0 | 0.00 | 0.00 | 0.00 | 98 | 1011.1 |
| 20260510031512 | 50 | 204 | 0.0 | 0.0 | 0.00 | 0.00 | 0.00 | 98 | 1011.0 |
| 20260510030011 | 50 | 192 | 0.0 | 0.0 | 0.00 | 0.00 | 0.00 | 98 | 1011.2 |
| 20260510024510 | 50 | 165 | 0.0 | 0.0 | 0.00 | 0.00 | 0.00 | 98 | 1011.0 |
| 20260510023010 | 50 | 165 | 0.0 | 0.0 | 0.00 | 0.00 | 0.00 | 98 | 1010.8 |
| 20260510021509 | 50 | 165 | 0.0 | 0.0 | 0.00 | 0.00 | 0.00 | 98 | 1010.9 |
| 20260510020009 | 50 | 165 | 0.0 | 4.0 | 0.00 | 0.00 | 0.00 | 98 | 1011.1 |
| 20260510014511 | 50 | 225 | 0.0 | 0.0 | 0.00 | 0.00 | 0.00 | 98 | 1011.2 |
| 20260510013008 | 50 | 225 | 0.0 | 0.0 | 0.00 | 0.00 | 0.00 | 98 | 1011.1 |
| 20260510011508 | 51 | 225 | 0.0 | 0.0 | 0.00 | 0.00 | 0.00 | 98 | 1011.0 |
| 20260510010007 | 50 | 223 | 0.0 | 0.0 | 0.00 | 0.00 | 0.00 | 98 | 1010.7 |
| 20260510004507 | 50 | 238 | 0.0 | 0.0 | 0.00 | 0.00 | 0.00 | 98 | 1010.6 |
| 20260510003006 | 50 | 245 | 0.0 | 0.0 | 0.00 | 0.00 | 0.00 | 98 | 1010.4 |
| 20260510001506 | 50 | 250 | 0.0 | 0.0 | 0.00 | 0.00 | 0.00 | 98 | 1010.5 |
| 20260510000005 | 51 | 171 | 0.0 | 3.0 | 0.00 | 0.00 | 0.00 | 98 | 1010.3 |
| 20260509234504 | 51 | 153 | 1.0 | 5.0 | 0.00 | 0.00 | 0.00 | 98 | 1010.2 |
| 20260509233003 | 51 | 159 | 3.0 | 8.0 | 0.00 | 0.00 | 0.00 | 98 | 1010.1 |
| 20260509231502 | 51 | 168 | 1.0 | 7.0 | 0.00 | 0.00 | 0.00 | 98 | 1010.3 |
| 20260509230100 | 51 | 162 | 0.0 | 3.0 | 0.00 | 0.00 | 0.00 | 98 | 1010.5 |
| 20260509224559 | 51 | 154 | 0.0 | 6.0 | 0.00 | 0.00 | 0.00 | 98 | 1010.6 |
| 20260509223058 | 51 | 160 | 0.0 | 4.0 | 0.00 | 0.00 | 0.00 | 97 | 1010.6 |
| 20260509221557 | 51 | 299 | 0.0 | 0.0 | 0.00 | 0.00 | 0.00 | 97 | 1010.9 |
| 20260509220057 | 51 | 244 | 0.0 | 2.0 | 0.00 | 0.00 | 0.00 | 97 | 1010.9 |
| 20260509214557 | 51 | 220 | 0.0 | 0.0 | 0.00 | 0.00 | 0.00 | 97 | 1011.1 |
| 20260509213055 | 51 | 229 | 0.0 | 4.0 | 0.00 | 0.00 | 0.00 | 97 | 1011.1 |
| 20260509211555 | 52 | 255 | 0.0 | 0.0 | 0.00 | 0.00 | 0.00 | 97 | 1010.9 |
| 20260509210105 | 51 | 254 | 0.0 | 0.0 | 0.00 | 0.00 | 0.00 | 97 | 1010.9 |
| 20260509204554 | 51 | 254 | 0.0 | 2.0 | 0.00 | 0.00 | 0.00 | 97 | 1011.0 |
| 20260509203050 | 51 | 277 | 0.0 | 6.0 | 0.00 | 0.00 | 0.00 | 97 | 1011.2 |
| 20260509201550 | 52 | 302 | 0.0 | 0.0 | 0.00 | 0.00 | 0.00 | 96 | 1011.4 |
| 20260509200105 | 52 | 161 | 0.0 | 0.0 | 0.00 | 0.00 | 0.00 | 96 | 1011.4 |
| 20260509194550 | 53 | 160 | 0.0 | 0.0 | 0.00 | 0.00 | 0.00 | 96 | 1011.3 |
| 20260509193048 | 53 | 160 | 0.0 | 0.0 | 0.00 | 0.00 | 0.00 | 95 | 1011.5 |
| 20260509191548 | 53 | 160 | 0.0 | 0.0 | 0.00 | 0.00 | 0.00 | 94 | 1011.4 |
| 20260509190055 | 53 | 160 | 0.0 | 0.0 | 0.00 | 0.00 | 0.00 | 94 | 1011.3 |
| 20260509184629 | 53 | 160 | 0.0 | 0.0 | 0.00 | 0.00 | 0.00 | 93 | 1011.2 |
| 20260509183048 | 53 | 160 | 0.0 | 0.0 | 0.00 | 0.00 | 0.00 | 94 | 1011.3 |
| 20260509181548 | 53 | 159 | 0.0 | 3.0 | 0.00 | 0.00 | 0.00 | 93 | 1011.3 |
| 20260509180045 | 53 | 159 | 0.0 | 4.0 | 0.00 | 0.00 | 0.00 | 94 | 1011.1 |